Regional Weather Roundup
Issued by NWS

Home | Current Version | Previous Version | Text Only | Print | Product List | Glossary On
Versions: 1 2 3 4 5 6 7 8 9 10 11 12 13 14 15 16 17 18 19 20 21 22 23 24 25 26 27 28 29 30 31 32 33 34 35 36 37 38 39 40 41 42 43 44 45 46 47 48 49 50
000
ASUS43 KOAX 231702
RWRNE

WEATHER ROUNDUP FOR NEBRASKA
NATIONAL WEATHER SERVICE OMAHA NE
1100 AM CST THU FEB 23 2017

NOTES: SATELLITE DATA IS BEING USED TO AUGMENT CLOUD COVER ABOVE
       12000 FEET.
       "FAIR" INDICATES FEW OR NO CLOUDS BELOW 12,000 FEET WITH NO
       SIGNIFICANT WEATHER AND/OR OBSTRUCTIONS TO VISIBILITY.

  * THESE STATIONS DO NOT REPORT WEATHER SUCH AS RAIN...SNOW OR FOG.

NEZ001>004-019>022-054>056-231800-
NEBRASKA PANHANDLE

CITY           SKY/WX    TMP DP  RH WIND       PRES   REMARKS
SCOTTSBLUFF    HVY SNOW  26  22  84 NE18      29.70R VSB 1/4 WCI  13
ALLIANCE       HVY SNOW  24  21  88 NE23      29.69F VSB 1/4 WCI   9
CHADRON        FOG       25  22  88 NE18      29.79S VSB 1/4 WCI  11
KIMBALL        LGT SNOW  27  27 100 E21       29.59F WCI  14
SIDNEY         FRZ RAIN  27  24  89 NE22      29.63F FOG     WCI  13
$$

NEZ057>060-069>072-079>082-231800-
SOUTHWEST NEBRASKA

CITY           SKY/WX    TMP DP  RH WIND       PRES   REMARKS
NORTH PLATTE   CLOUDY    30  25  81 NE20      29.68F WCI  17
IMPERIAL       CLOUDY    30  28  92 NE23      29.62F FOG     WCI  17
LEXINGTON      CLOUDY    32  31  96 NE17G28   29.67F FOG     WCI  21
MCCOOK         CLOUDY    32  31  96 NE20G28   29.62F FOG     WCI  20
OGALLALA       CLOUDY    31  26  83 NE22      29.67S WCI  18
$$

NEZ005>010-023>029-035>040-094-231800-
NORTH CENTRAL NEBRASKA

CITY           SKY/WX    TMP DP  RH WIND       PRES   REMARKS
VALENTINE      SNOW      26  22  84 NE16      29.82F VSB 1/4 WCI  14
AINSWORTH      SNOW      26  26  97 NE17      29.79F VSB 1/2 WCI  14
BROKEN BOW     CLOUDY    30  28  92 NE17G28   29.69F WCI  18
O`NEILL        LGT SNOW  30  29  96 N15       29.81S VSB 1   WCI  19
ORD            CLOUDY    31  27  85 NE17G24   29.72F WCI  19
THEDFORD       LGT SNOW  28  25  89 NE15G24   29.74F WCI  16
$$

NEZ041-046>049-061>064-073>077-083>087-231800-
SOUTH CENTRAL NEBRASKA

CITY           SKY/WX    TMP DP  RH WIND       PRES   REMARKS
GRAND ISLAND   CLOUDY    32  32 100 NE22G28   29.70F FOG     WCI  19
AURORA         CLOUDY    33  32  98 NE24G31   29.68F FOG     WCI  20
HASTINGS       CLOUDY    34  32  92 NE23G29   29.67F WCI  22
HEBRON         CLOUDY    40  34  79 NE21G26   29.64F WCI  30
HOLDREGE       CLOUDY    33  32  98 NE23      29.64F FOG     WCI  20
KEARNEY *      CLOUDY    34  28  80 NE20G28   29.67F WCI  22
YORK           CLOUDY    36  34  93 NE21G26   29.68F WCI  24
$$

NEZ011>018-030>034-042>045-231800-
NORTHEAST NEBRASKA

CITY           SKY/WX    TMP DP  RH WIND       PRES   REMARKS
NORFOLK        CLOUDY    33  29  85 NE16G24   29.76F WCI  23
ALBION         CLOUDY    33  31  91 NE18      29.74S WCI  22
BLAIR          CLOUDY    38  34  85 NE17G26   29.70F WCI  28
FREMONT        CLOUDY    37  33  87 NE13G18   29.72F WCI  28
TEKAMAH        CLOUDY    38  32  79 NE20      29.74F WCI  28
WAYNE          CLOUDY    33  32  94 NE17      29.78F WCI  23
$$

NEZ050>053-065>068-078-088>093-231800-
SOUTHEAST NEBRASKA

CITY           SKY/WX    TMP DP  RH WIND       PRES   REMARKS
LINCOLN        CLOUDY    40  33  76 NE22      29.70F WCI  30
OMAHA EPPLEY   CLOUDY    40  33  76 NE16G22   29.72F WCI  31
BEATRICE       CLOUDY    39  36  86 NE16G23   29.65F WCI  31
FALLS CITY     CLOUDY    44  39  82 E16G25    29.65R
NEBRASKA CITY  CLOUDY    39  36  88 NE18      29.67F WCI  29
PLATTSMOUTH    CLOUDY    38  33  81 NE14G24   29.70F WCI  30
$$

NEZ044-045-051>053-067-231800-
OMAHA AREA

CITY           SKY/WX    TMP DP  RH WIND       PRES   REMARKS
OMAHA EPPLEY   CLOUDY    40  33  76 NE16G22   29.72F WCI  31
BLAIR          CLOUDY    38  34  85 NE17G26   29.70F WCI  28
FREMONT        CLOUDY    37  33  87 NE13G18   29.72F WCI  28
MILLARD        CLOUDY    40  35  81 NE8G20    29.70F WCI  35
PLATTSMOUTH    CLOUDY    38  33  81 NE14G24   29.70F WCI  30
WAHOO          CLOUDY    37  33  84 NE18G25   29.71F WCI  27
$$



USA.gov is the U.S. government's official web portal to all federal, state and local government web resources and services.